COSMOS 2491 DEB, 45172

Orbit data source: Space-Track

COSMOS 2491 DEB, 45172 is space debris in LEO originally from a launch on Wed, 25 Dec 2013 UTC launched from the Plesetsk Missile And Space Complex (PKMTR). Debris objects in space refer to the collection of defunct objects orbiting the Earth. Examples of debris include non-operational satellites, rocket bodies, and fragments generated from explosions, collisions, or faulty payload assembly.

Loading next visibility...
Identifier
45172, 2013-076AD
Orbit
LEO
Country
Flag of CISCIS
Related business
Manufacturer
TsNIIKhM
Mission
Spacecraft
Bus & Motor
Unknown
Mass
Unknown
Launch date (UTC)
2013-12-25 (12 years ago)
Launch vehicle
Unknown
Launch site
Plesetsk Missile And Space Complex (PKMTR)
Object type
Payload
Rocket body
Debris
Shape & HBR
Unknown
Radar Cross Section
Small (<0.1 m²)

Expand to show TLE details & history
Last TLE update: 2 days ago

TLE from 2 days ago
0 COSMOS 2491 DEB
1 45172U 13076AD  25241.45168149  .00001593  00000-0  78431-2 0  9991
2 45172  82.4503 301.3147 0165879 109.5070 252.4025 12.67159371257310
Epoch: 2025-08-29T10:50Z
TLE epoch observation values (Epoch: 2025-08-29T10:50:25.28Z)
Latitude
0.00002°
Longitude
160.80923°
Altitude
1,437.179 km
Speed
7.124 km/s
True Right ascension
20h 05m 15s
True Declination
0° 00' 00"
Sunlit
Object was in full shadow at epoch
Visualization orbit readout
Latitude
Unknown
Longitude
Unknown
Altitude
Unknown
Speed
Unknown
Apparent Right ascension
Unknown
Apparent Declination
Unknown
Sunlit
N/A
Visualization observer readout
Local Sidereal Time
16:11:59
Azimuth
Unknown
Elevation
Unknown
Doppler factor
Unknown
Orbital elements
Apogee altitude
1,519.722 km
Perigee altitude
1,261.979 km
Semi-major axis
7,768.988 km
Eccentricity
0.01659
Inclination
82.4503°
RAAN
301.3147°
Arg. of periapsis
109.507°
True anomaly
250.6022°
Mean anomaly
252.4025°
Eccentric anomaly
251.50119°
Mean motion
3.16954 °/min
Orbital period
113.58 mins
BSTAR
0.0078431
Loading maneuver chart data...
Computing Atmospheric mass density...
Loading historical data...
Loading historical data...
Loading historical data...
Loading historical data...
Loading historical data...
Loading historical data...
Loading historical data...

Documentation

Showing up to 5 results
|